Friday Harbor, WA
on Thursday, December 20, 2012

Thursday
Previous Day Next Day
Daily Summary
 ActualAverageRecord
Temperature
Mean Temperature °F °F  
Max Temperature 43°F 43°F 54°F (2005)
Min Temperature 39°F 34°F 9°F (2008)
Degree Days
Heating Degree Days 24    
Moisture
Dew Point 38°F   
Average Humidity 86    
Maximum Humidity 93    
Minimum Humidity 76    
Precipitation
Precipitation 0.18 in in in ()
Wind
Wind Speed 12 mph   
Max Wind Speed 23 mph   
Max Gust Speed 30 mph   
Visibility 9 miles   
Events Rain   
Averages and records for this station are not official NWS values.
Key: T is trace of precipitation, MM is missing value
Source: NWS Daily Summary
Seasonal Weather Averages
Time(PST)TemperatureDew PointHumidity Pressure Visibility Wind DirectionWind SpeedGust SpeedPrecipitationEvents Conditions
12:16 AM 41.0°F 37.4°F 87% 29.54 in 10.0 miles ESE 18.4 mph 28.8 mph 0.00 in Rain Light Rain
12:44 AM 41.0°F 37.4°F 87% 29.51 in 10.0 miles ESE 23.0 mph 29.9 mph 0.00 in Rain Light Rain
12:53 AM 41.0°F 37.0°F 86% 29.51 in 10.0 miles ESE 19.6 mph 29.9 mph 0.00 in Rain Light Rain
1:48 AM 41.0°F 37.4°F 87% 29.49 in 10.0 miles SE 17.3 mph 26.5 mph 0.00 in Rain Light Rain
1:53 AM 41.0°F 37.0°F 86% 29.49 in 10.0 miles SE 20.7 mph 27.6 mph 0.00 in   Overcast
2:24 AM 42.8°F 37.4°F 81% 29.49 in 10.0 miles SE 15.0 mph 19.6 mph N/A   Overcast
2:53 AM 41.0°F 37.9°F 89% 29.49 in 10.0 miles SE 12.7 mph - N/A   Overcast
3:53 AM 42.1°F 39.9°F 92% 29.49 in 10.0 miles SE 10.4 mph - 0.00 in   Overcast
4:53 AM 43.0°F 39.0°F 86% 29.48 in 10.0 miles Variable 5.8 mph 17.3 mph N/A   Overcast
5:53 AM 42.1°F 37.9°F 85% 29.48 in 10.0 miles SSE 5.8 mph - N/A   Scattered Clouds
6:53 AM 43.0°F 37.9°F 82% 29.49 in 10.0 miles SE 5.8 mph - N/A   Overcast
7:24 AM 42.8°F 37.4°F 81% 29.50 in 10.0 miles SSE 6.9 mph - N/A   Overcast
7:53 AM 42.1°F 37.9°F 85% 29.51 in 10.0 miles SE 3.5 mph - N/A   Overcast
8:23 AM 42.8°F 37.4°F 81% 29.51 in 10.0 miles ESE 11.5 mph 16.1 mph N/A   Overcast
8:53 AM 42.1°F 37.0°F 82% 29.51 in 10.0 miles ESE 11.5 mph - N/A   Overcast
9:31 AM 42.8°F 37.4°F 81% 29.53 in 10.0 miles ESE 15.0 mph - N/A   Overcast
9:53 AM 42.1°F 37.9°F 85% 29.53 in 10.0 miles SE 10.4 mph 18.4 mph 0.00 in Rain Light Rain
10:07 AM 42.8°F 37.4°F 81% 29.53 in 10.0 miles SE 10.4 mph - 0.00 in Rain Light Rain
10:53 AM 42.1°F 39.0°F 89% 29.55 in 10.0 miles SE 12.7 mph - 0.00 in Rain Light Rain
11:53 AM 42.1°F 39.0°F 89% 29.57 in 10.0 miles South 6.9 mph - 0.00 in Rain Light Rain
12:53 PM 41.0°F 39.0°F 93% 29.60 in 7.0 miles SSE 8.1 mph - 0.00 in Rain Light Rain
1:16 PM 42.8°F 39.2°F 87% 29.60 in 7.0 miles Variable 3.5 mph - 0.00 in Rain Light Rain
1:39 PM 42.8°F 41.0°F 93% 29.61 in 10.0 miles Calm Calm - 0.01 in   Scattered Clouds
1:53 PM 42.1°F 39.9°F 92% 29.63 in 10.0 miles South 5.8 mph - 0.01 in   Mostly Cloudy
2:04 PM 42.8°F 39.2°F 87% 29.63 in 10.0 miles Calm Calm - N/A   Mostly Cloudy
2:37 PM 42.8°F 39.2°F 87% 29.64 in 10.0 miles South 6.9 mph - N/A   Overcast
2:53 PM 42.1°F 39.0°F 89% 29.65 in 10.0 miles SSE 9.2 mph - N/A   Mostly Cloudy
3:14 PM 42.8°F 39.2°F 87% 29.66 in 10.0 miles SE 11.5 mph 17.3 mph N/A   Mostly Cloudy
3:49 PM 42.8°F 37.4°F 81% 29.69 in 10.0 miles SSE 8.1 mph - N/A   Overcast
3:53 PM 42.1°F 37.9°F 85% 29.69 in 10.0 miles SSE 6.9 mph - N/A   Overcast
4:29 PM 41.0°F 37.4°F 87% 29.70 in 10.0 miles SSE 4.6 mph - N/A   Scattered Clouds
4:42 PM 41.0°F 37.4°F 87% 29.71 in 10.0 miles SSE 5.8 mph - N/A   Mostly Cloudy
4:53 PM 41.0°F 37.9°F 89% 29.72 in 10.0 miles SE 6.9 mph - N/A   Mostly Cloudy
5:53 PM 41.0°F 37.9°F 89% 29.75 in 3.0 miles South 6.9 mph 18.4 mph 0.04 in Rain Rain
6:05 PM 41.0°F 37.4°F 87% 29.75 in 4.0 miles Variable 3.5 mph - 0.04 in Rain Rain
6:46 PM 39.2°F 37.4°F 93% 29.77 in 3.0 miles Calm Calm - 0.12 in Rain Rain
6:53 PM 39.9°F 37.9°F 93% 29.77 in 4.0 miles Calm Calm - 0.13 in Rain Light Rain
7:53 PM 39.9°F 37.9°F 93% 29.77 in 10.0 miles SE 10.4 mph 18.4 mph 0.00 in   Mostly Cloudy
8:08 PM 41.0°F 37.4°F 87% 29.77 in 10.0 miles SE 10.4 mph - N/A   Overcast
8:53 PM 41.0°F 37.0°F 86% 29.79 in 10.0 miles SE 11.5 mph 19.6 mph N/A   Mostly Cloudy
9:53 PM 41.0°F 37.0°F 86% 29.80 in 10.0 miles East 9.2 mph 17.3 mph N/A   Overcast
10:53 PM 41.0°F 36.0°F 82% 29.80 in 10.0 miles ESE 11.5 mph - N/A   Mostly Cloudy
11:05 PM 41.0°F 35.6°F 81% 29.80 in 10.0 miles ESE 11.5 mph - N/A   Scattered Clouds
11:33 PM 41.0°F 35.6°F 81% 29.79 in 10.0 miles ESE 9.2 mph 16.1 mph N/A   Mostly Cloudy
11:42 PM 42.8°F 35.6°F 76% 29.79 in 10.0 miles ESE 13.8 mph 19.6 mph N/A   Scattered Clouds
11:53 PM 42.1°F 35.1°F 76% 29.79 in 10.0 miles ESE 15.0 mph 21.9 mph N/A   Partly Cloudy
Moon Phase
Dec. 20 Dec. 28 Jan. 04 Jan. 11 Jan. 18
Sunrise:08:01 AM (PST) Moon Rise:12:03 PM (PST)12/20
Sunset:04:18 PM (PST) Moon Set:12:27 AM (PST)12/20

Copyright © 2014 The Weather Underground, Inc.